STARLINK-35009, 65449

Orbit data source: Space-Track

STARLINK-35009, 65449 is a payload satellite owned by SpaceX/Seattle (US) in SSO that was launched on Wed, 03 Sep 2025 UTC via an FALCON 9 launch vehicle from the Air Force Western Test Range (AFWTR). Payload-class satellites include a variety of spacecraft equipped with specific instruments for various scientific and technological missions. These include communications satellites like Starlink; space stations such as the ISS; scientific satellites like the Hubble; Earth observation satellites from companies like Planet Labs, Umbra, and HawkEye 360; GPS; miniature CubeSats for education and research; and military/defense satellites.

Loading next visibility...
Identifier
65449, 2025-194R
Orbit
SSO
Country
Flag of USUS
Related business
Manufacturer
SpaceX/Seattle
Mission
Operational Commercial Communications
Bus & Motor
STARLINK V2MO, Unknown motor
Mass
575 kg wet, ~530 kg dry
Launch date (UTC)
2025-09-03 (10 months ago)
Launch vehicle
FALCON 9
Launch site
Air Force Western Test Range (AFWTR)
Object type
Payload
Rocket body
Debris
Shape & HBR
Box + 2 Pan, 17.7 m
Radar Cross Section
36.964 m², Large (>1 m²)

Expand to show TLE details & history
Last TLE update: 16 hours ago

TLE from 16 hours ago
0 STARLINK-35009
1 65449U 25194R   26171.30847676  .00004189  00000-0  29405-3 0  9992
2 65449  97.3387  24.5161 0002371  91.9112 268.2387 15.05653450 45090
Epoch: 2026-06-20T07:24Z
TLE epoch observation values (Epoch: 2026-06-20T07:24:12.392Z)
Latitude
-0.00001°
Longitude
4.93951°
Altitude
552.624 km
Speed
7.585 km/s
True Right ascension
01h 38m 03s
True Declination
0° 00' 00"
Sunlit
Object was in daylight at epoch
Visualization orbit readout
Latitude
Unknown
Longitude
Unknown
Altitude
Unknown
Speed
Unknown
Apparent Right ascension
Unknown
Apparent Declination
Unknown
Sunlit
N/A
Visualization observer readout
Local Sidereal Time
10:18:35
Azimuth
Unknown
Elevation
Unknown
Doppler factor
Unknown
Orbital elements
Apogee altitude
548.125 km
Perigee altitude
544.841 km
Semi-major axis
6,924.62 km
Eccentricity
0.00024
Inclination
97.3387°
RAAN
24.5161°
Arg. of periapsis
91.9112°
True anomaly
268.21154°
Mean anomaly
268.2387°
Eccentric anomaly
268.22512°
Mean motion
3.7666 °/min
Orbital period
95.58 mins
BSTAR
0.00029405
Loading maneuver chart data...
Computing Atmospheric mass density...
Loading historical data...
Loading historical data...
Loading historical data...
Loading historical data...
Loading historical data...
Loading historical data...
Loading historical data...

Documentation

Showing up to 5 results
|